Time,TemperatureF,DewpointF,PressureIn,WindDirection,WindDirectionDegrees,WindSpeedMPH,WindSpeedGustMPH,Humidity,HourlyPrecipIn,Conditions,Clouds,dailyrainin,SoftwareType,DateUTC
2013-07-13 00:02:00,67.9,66.0,30.17,ENE,63,0.0,1.0,92,0.00,,,0.00,weatherlink.com 1.10,2013-07-13 04:02:00,
2013-07-13 00:18:00,67.6,64.0,30.18,ENE,63,0.0,0.0,88,0.00,,,0.00,weatherlink.com 1.10,2013-07-13 04:18:00,
2013-07-13 00:33:00,68.0,65.0,30.18,ENE,63,0.0,0.0,91,0.00,,,0.00,weatherlink.com 1.10,2013-07-13 04:33:00,
2013-07-13 00:48:00,67.5,65.0,30.18,ENE,63,0.0,0.0,90,0.00,,,0.00,weatherlink.com 1.10,2013-07-13 04:48:00,
2013-07-13 01:03:00,67.3,65.0,30.18,ENE,63,0.0,0.0,91,0.00,,,0.00,weatherlink.com 1.10,2013-07-13 05:03:00,
2013-07-13 01:18:00,67.2,65.0,30.18,ENE,63,0.0,0.0,92,0.00,,,0.00,weatherlink.com 1.10,2013-07-13 05:18:00,
2013-07-13 01:33:00,67.1,64.0,30.18,ENE,63,0.0,0.0,90,0.00,,,0.00,weatherlink.com 1.10,2013-07-13 05:33:00,
2013-07-13 01:48:00,67.0,64.0,30.18,ENE,63,0.0,0.0,89,0.00,,,0.00,weatherlink.com 1.10,2013-07-13 05:48:00,
2013-07-13 02:03:00,67.0,63.0,30.18,ENE,63,0.0,0.0,88,0.00,,,0.00,weatherlink.com 1.10,2013-07-13 06:03:00,
2013-07-13 02:18:00,67.3,63.0,30.19,SSE,166,0.0,4.0,87,0.00,,,0.00,weatherlink.com 1.10,2013-07-13 06:18:00,
2013-07-13 02:33:00,66.6,62.0,30.19,South,170,0.0,3.0,85,0.00,,,0.00,weatherlink.com 1.10,2013-07-13 06:33:00,
2013-07-13 02:48:00,66.0,62.0,30.20,South,170,0.0,0.0,88,0.00,,,0.00,weatherlink.com 1.10,2013-07-13 06:48:00,
2013-07-13 03:03:00,65.4,62.0,30.20,SSW,194,0.0,4.0,89,0.01,,,0.01,weatherlink.com 1.10,2013-07-13 07:03:00,
2013-07-13 03:18:00,64.3,62.0,30.20,SSE,159,0.0,0.0,93,0.02,,,0.02,weatherlink.com 1.10,2013-07-13 07:18:00,
2013-07-13 03:33:00,63.6,62.0,30.20,SSE,159,0.0,0.0,94,0.03,,,0.03,weatherlink.com 1.10,2013-07-13 07:33:00,
2013-07-13 03:48:00,63.2,62.0,30.20,SSE,159,0.0,0.0,96,0.03,,,0.03,weatherlink.com 1.10,2013-07-13 07:48:00,
2013-07-13 04:03:00,63.2,62.0,30.20,SSE,159,0.0,1.0,96,0.02,,,0.03,weatherlink.com 1.10,2013-07-13 08:03:00,
2013-07-13 04:18:00,63.2,62.0,30.21,SSE,159,0.0,0.0,97,0.01,,,0.03,weatherlink.com 1.10,2013-07-13 08:18:00,
2013-07-13 04:33:00,63.2,62.0,30.21,SSE,159,0.0,1.0,97,0.00,,,0.03,weatherlink.com 1.10,2013-07-13 08:33:00,
2013-07-13 04:48:00,63.1,62.0,30.21,SSE,159,0.0,1.0,97,0.00,,,0.03,weatherlink.com 1.10,2013-07-13 08:48:00,
2013-07-13 05:03:00,63.0,62.0,30.21,SSE,161,0.0,1.0,97,0.00,,,0.03,weatherlink.com 1.10,2013-07-13 09:03:00,
2013-07-13 05:18:00,62.9,62.0,30.21,ESE,112,0.0,0.0,97,0.00,,,0.03,weatherlink.com 1.10,2013-07-13 09:18:00,
2013-07-13 05:33:00,63.0,62.0,30.22,ESE,112,0.0,0.0,97,0.00,,,0.03,weatherlink.com 1.10,2013-07-13 09:33:00,
2013-07-13 05:48:00,63.1,63.0,30.23,South,175,0.0,0.0,98,0.00,,,0.03,weatherlink.com 1.10,2013-07-13 09:48:00,
2013-07-13 06:03:00,63.0,63.0,30.23,South,175,0.0,0.0,98,0.00,,,0.03,weatherlink.com 1.10,2013-07-13 10:03:00,
2013-07-13 06:18:00,63.0,63.0,30.23,South,175,0.0,0.0,98,0.00,,,0.03,weatherlink.com 1.10,2013-07-13 10:18:00,
2013-07-13 06:33:00,62.9,62.0,30.23,South,175,0.0,0.0,98,0.01,,,0.04,weatherlink.com 1.10,2013-07-13 10:33:00,
2013-07-13 06:48:00,63.1,63.0,30.24,South,175,0.0,0.0,98,0.01,,,0.04,weatherlink.com 1.10,2013-07-13 10:48:00,
2013-07-13 07:03:00,63.1,63.0,30.24,South,175,0.0,0.0,98,0.01,,,0.04,weatherlink.com 1.10,2013-07-13 11:03:00,
2013-07-13 07:19:00,63.3,63.0,30.24,South,175,0.0,0.0,98,0.01,,,0.04,weatherlink.com 1.10,2013-07-13 11:19:00,
2013-07-13 07:33:00,63.3,63.0,30.25,South,175,0.0,0.0,98,0.00,,,0.04,weatherlink.com 1.10,2013-07-13 11:33:00,
2013-07-13 07:48:00,63.3,63.0,30.26,South,175,0.0,0.0,98,0.00,,,0.04,weatherlink.com 1.10,2013-07-13 11:48:00,
2013-07-13 08:03:00,63.6,63.0,30.26,South,169,0.0,0.0,98,0.00,,,0.04,weatherlink.com 1.10,2013-07-13 12:03:00,
2013-07-13 08:19:00,63.6,63.0,30.26,South,169,0.0,0.0,98,0.00,,,0.04,weatherlink.com 1.10,2013-07-13 12:19:00,
2013-07-13 08:34:00,63.9,63.0,30.26,South,169,0.0,0.0,97,0.00,,,0.04,weatherlink.com 1.10,2013-07-13 12:34:00,
2013-07-13 08:49:00,64.4,64.0,30.27,South,169,0.0,0.0,97,0.01,,,0.05,weatherlink.com 1.10,2013-07-13 12:49:00,
2013-07-13 09:04:00,64.9,64.0,30.26,South,169,0.0,0.0,96,0.01,,,0.05,weatherlink.com 1.10,2013-07-13 13:04:00,
2013-07-13 09:19:00,65.0,64.0,30.26,South,169,0.0,0.0,96,0.01,,,0.05,weatherlink.com 1.10,2013-07-13 13:19:00,
2013-07-13 09:34:00,65.2,64.0,30.27,South,169,0.0,0.0,95,0.01,,,0.05,weatherlink.com 1.10,2013-07-13 13:34:00,
2013-07-13 09:49:00,65.7,64.0,30.27,South,169,0.0,0.0,95,0.00,,,0.05,weatherlink.com 1.10,2013-07-13 13:49:00,
2013-07-13 10:04:00,66.0,64.0,30.27,South,169,0.0,0.0,94,0.00,,,0.05,weatherlink.com 1.10,2013-07-13 14:04:00,
2013-07-13 10:19:00,66.3,65.0,30.27,South,169,0.0,0.0,94,0.00,,,0.05,weatherlink.com 1.10,2013-07-13 14:19:00,
2013-07-13 10:34:00,66.6,65.0,30.27,South,169,0.0,0.0,93,0.00,,,0.05,weatherlink.com 1.10,2013-07-13 14:34:00,
2013-07-13 10:49:00,66.9,65.0,30.27,South,169,0.0,0.0,93,0.00,,,0.05,weatherlink.com 1.10,2013-07-13 14:49:00,
2013-07-13 11:04:00,67.1,65.0,30.27,South,169,0.0,0.0,92,0.00,,,0.05,weatherlink.com 1.10,2013-07-13 15:04:00,
2013-07-13 11:20:00,67.3,65.0,30.27,South,169,0.0,0.0,92,0.00,,,0.05,weatherlink.com 1.10,2013-07-13 15:20:00,
2013-07-13 11:34:00,67.5,65.0,30.27,South,169,0.0,0.0,92,0.00,,,0.05,weatherlink.com 1.10,2013-07-13 15:34:00,
2013-07-13 11:49:00,67.6,66.0,30.28,South,170,0.0,0.0,93,0.00,,,0.05,weatherlink.com 1.10,2013-07-13 15:49:00,
2013-07-13 12:04:00,68.0,66.0,30.28,South,170,0.0,0.0,93,0.00,,,0.05,weatherlink.com 1.10,2013-07-13 16:04:00,
2013-07-13 12:19:00,68.8,67.0,30.28,South,170,0.0,0.0,93,0.00,,,0.05,weatherlink.com 1.10,2013-07-13 16:19:00,
2013-07-13 12:34:00,68.8,66.0,30.28,South,170,0.0,0.0,92,0.00,,,0.05,weatherlink.com 1.10,2013-07-13 16:34:00,
2013-07-13 12:49:00,69.3,67.0,30.28,South,170,0.0,0.0,92,0.00,,,0.05,weatherlink.com 1.10,2013-07-13 16:49:00,
2013-07-13 13:04:00,70.2,68.0,30.28,South,170,0.0,0.0,91,0.00,,,0.05,weatherlink.com 1.10,2013-07-13 17:04:00,
2013-07-13 13:19:00,71.0,69.0,30.28,SSE,152,0.0,0.0,92,0.00,,,0.05,weatherlink.com 1.10,2013-07-13 17:19:00,
2013-07-13 13:34:00,72.1,69.0,30.27,East,82,2.0,3.0,90,0.00,,,0.05,weatherlink.com 1.10,2013-07-13 17:34:00,
2013-07-13 13:49:00,72.8,69.0,30.27,SSE,157,0.0,2.0,87,0.00,,,0.05,weatherlink.com 1.10,2013-07-13 17:49:00,
2013-07-13 14:04:00,73.3,69.0,30.27,East,89,0.0,2.0,87,0.00,,,0.05,weatherlink.com 1.10,2013-07-13 18:04:00,
2013-07-13 14:19:00,73.3,70.0,30.27,East,90,0.0,0.0,88,0.00,,,0.05,weatherlink.com 1.10,2013-07-13 18:19:00,
2013-07-13 14:34:00,73.1,70.0,30.28,SW,225,0.0,0.0,89,0.00,,,0.05,weatherlink.com 1.10,2013-07-13 18:34:00,
2013-07-13 14:49:00,72.8,69.0,30.28,SSE,163,0.0,2.0,88,0.00,,,0.05,weatherlink.com 1.10,2013-07-13 18:49:00,
2013-07-13 15:04:00,72.7,70.0,30.27,South,190,0.0,2.0,90,0.00,,,0.05,weatherlink.com 1.10,2013-07-13 19:04:00,
2013-07-13 15:19:00,73.2,70.0,30.27,SSW,195,0.0,1.0,89,0.00,,,0.05,weatherlink.com 1.10,2013-07-13 19:19:00,
2013-07-13 15:35:00,73.1,69.0,30.27,SSW,195,0.0,3.0,87,0.00,,,0.05,weatherlink.com 1.10,2013-07-13 19:35:00,
2013-07-13 15:49:00,74.3,71.0,30.26,SW,219,1.0,3.0,89,0.00,,,0.05,weatherlink.com 1.10,2013-07-13 19:49:00,
2013-07-13 16:04:00,75.0,71.0,30.26,SSW,198,3.0,4.0,87,0.00,,,0.05,weatherlink.com 1.10,2013-07-13 20:04:00,
2013-07-13 16:19:00,75.1,71.0,30.25,SW,224,0.0,5.0,86,0.00,,,0.05,weatherlink.com 1.10,2013-07-13 20:19:00,
2013-07-13 16:34:00,75.4,71.0,30.25,SSW,194,0.0,5.0,86,0.00,,,0.05,weatherlink.com 1.10,2013-07-13 20:34:00,
2013-07-13 16:49:00,75.4,72.0,30.25,SW,215,3.0,8.0,88,0.00,,,0.05,weatherlink.com 1.10,2013-07-13 20:49:00,
2013-07-13 17:04:00,75.7,71.0,30.25,South,172,0.0,6.0,86,0.00,,,0.05,weatherlink.com 1.10,2013-07-13 21:04:00,
2013-07-13 17:20:00,76.8,72.0,30.24,SSE,150,0.0,4.0,84,0.00,,,0.05,weatherlink.com 1.10,2013-07-13 21:20:00,
2013-07-13 17:34:00,77.1,72.0,30.24,SSE,156,0.0,4.0,84,0.00,,,0.05,weatherlink.com 1.10,2013-07-13 21:34:00,
2013-07-13 17:49:00,76.6,72.0,30.25,SW,218,1.0,4.0,86,0.00,,,0.05,weatherlink.com 1.10,2013-07-13 21:49:00,
2013-07-13 18:04:00,76.5,72.0,30.25,SW,215,2.0,7.0,86,0.00,,,0.05,weatherlink.com 1.10,2013-07-13 22:04:00,
2013-07-13 18:20:00,75.8,72.0,30.25,SSW,205,1.0,4.0,87,0.00,,,0.05,weatherlink.com 1.10,2013-07-13 22:20:00,
2013-07-13 18:35:00,75.5,72.0,30.25,South,179,2.0,5.0,88,0.00,,,0.05,weatherlink.com 1.10,2013-07-13 22:35:00,
2013-07-13 18:50:00,75.4,71.0,30.25,South,180,1.0,6.0,87,0.00,,,0.05,weatherlink.com 1.10,2013-07-13 22:50:00,
2013-07-13 19:05:00,75.1,71.0,30.26,SSE,163,5.0,5.0,88,0.00,,,0.05,weatherlink.com 1.10,2013-07-13 23:05:00,
2013-07-13 19:20:00,74.8,71.0,30.26,South,189,1.0,4.0,89,0.00,,,0.05,weatherlink.com 1.10,2013-07-13 23:20:00,
2013-07-13 19:35:00,74.4,71.0,30.26,SSW,209,0.0,5.0,89,0.00,,,0.05,weatherlink.com 1.10,2013-07-13 23:35:00,
2013-07-13 19:50:00,74.0,71.0,30.26,South,190,0.0,4.0,90,0.00,,,0.05,weatherlink.com 1.10,2013-07-13 23:50:00,
2013-07-13 20:05:00,73.8,71.0,30.26,South,190,0.0,1.0,91,0.00,,,0.05,weatherlink.com 1.10,2013-07-14 00:05:00,
2013-07-13 20:20:00,73.5,71.0,30.26,South,181,0.0,0.0,92,0.00,,,0.05,weatherlink.com 1.10,2013-07-14 00:20:00,
2013-07-13 20:35:00,73.3,71.0,30.26,South,181,0.0,1.0,92,0.00,,,0.05,weatherlink.com 1.10,2013-07-14 00:35:00,
2013-07-13 20:50:00,73.0,71.0,30.25,South,169,0.0,2.0,93,0.00,,,0.05,weatherlink.com 1.10,2013-07-14 00:50:00,
2013-07-13 21:05:00,72.7,71.0,30.26,South,186,0.0,1.0,93,0.00,,,0.05,weatherlink.com 1.10,2013-07-14 01:05:00,
2013-07-13 21:20:00,71.8,70.0,30.26,South,186,0.0,1.0,94,0.00,,,0.05,weatherlink.com 1.10,2013-07-14 01:20:00,
2013-07-13 21:35:00,71.2,70.0,30.27,South,186,0.0,1.0,95,0.00,,,0.05,weatherlink.com 1.10,2013-07-14 01:35:00,
2013-07-13 21:50:00,70.5,69.0,30.28,South,186,0.0,0.0,95,0.00,,,0.05,weatherlink.com 1.10,2013-07-14 01:50:00,
2013-07-13 22:05:00,70.0,69.0,30.28,South,186,0.0,0.0,96,0.00,,,0.05,weatherlink.com 1.10,2013-07-14 02:05:00,
2013-07-13 22:20:00,69.7,69.0,30.28,South,186,0.0,0.0,97,0.00,,,0.05,weatherlink.com 1.10,2013-07-14 02:20:00,
2013-07-13 22:35:00,69.3,69.0,30.29,South,186,0.0,0.0,97,0.00,,,0.05,weatherlink.com 1.10,2013-07-14 02:35:00,
2013-07-13 22:50:00,69.0,68.0,30.29,South,186,0.0,0.0,97,0.00,,,0.05,weatherlink.com 1.10,2013-07-14 02:50:00,
2013-07-13 23:05:00,68.7,68.0,30.30,South,186,0.0,0.0,97,0.00,,,0.05,weatherlink.com 1.10,2013-07-14 03:05:00,
2013-07-13 23:20:00,68.3,68.0,30.30,South,186,0.0,0.0,97,0.00,,,0.05,weatherlink.com 1.10,2013-07-14 03:20:00,
2013-07-13 23:35:00,67.9,67.0,30.30,South,186,0.0,0.0,98,0.00,,,0.05,weatherlink.com 1.10,2013-07-14 03:35:00,
2013-07-13 23:50:00,68.0,68.0,30.30,South,186,0.0,0.0,98,0.00,,,0.05,weatherlink.com 1.10,2013-07-14 03:50:00,